Location: Clarks Summit,Pa.
(41.5000°N, 75.6000°W)
Time: 20:32:33
(UTC-05:00)

Envisat - Pass Details

Date: 09 December 2021
Orbit: 764 x 766 km, 98.2° (Epoch: 16 January)

Event Time Altitude Azimuth Distance (km) Brightness Sun altitude
Rises 05:46:42 0° 4° (N) 3,241 6.1 -16.4°
Reaches altitude 10° 05:49:09 10° 357° (N) 2,310 5.3 -15.9°
Maximum altitude 05:53:48 37° 291° (WNW) 1,172 3.4 -15.1°
Drops below altitude 10° 05:58:25 10° 225° (SW) 2,295 5.2 -14.3°
Sets 06:00:51 0° 217° (SW) 3,217 6.0 -13.8°
